This is the latest recevied weather packets stored in our database for station/object KA1AL. If no packets are shown the sender has not sent any weather packets the latest 10 day(s).
| Time | Temp. | Humidity | Pressure | Rain* | Wind** | Luminosity | Snow |
|---|---|---|---|---|---|---|---|
| 1778125314 | 7.22° C | 99% | 1003.9 hPa | 0 mm | - | 0 W/m² | - |
| 1778125012 | 7.22° C | 99% | 1003.4 hPa | 0 mm | - | 0 W/m² | - |
| 1778124709 | 7.22° C | 99% | 1003.4 hPa | 1.27 mm | - | 0 W/m² | - |
| 1778124407 | 7.22° C | 99% | 1003.3 hPa | 3.05 mm | - | 0 W/m² | - |
| 1778124102 | 7.22° C | 99% | 1003.3 hPa | 3.56 mm | - | 0 W/m² | - |
| 1778123799 | 7.78° C | 99% | 1003.2 hPa | 3.05 mm | - | 0 W/m² | - |
| 1778123496 | 7.78° C | 99% | 1003.4 hPa | 4.32 mm | - | 0 W/m² | - |
| 1778123192 | 7.78° C | 99% | 1003.5 hPa | 3.05 mm | - | 0 W/m² | - |
| 1778122891 | 7.78° C | 99% | 1003.5 hPa | 3.05 mm | - | 0 W/m² | - |
| 1778122587 | 7.78° C | 99% | 1003.5 hPa | 4.83 mm | - | 0 W/m² | - |
| 1778122284 | 8.33° C | 99% | 1003.6 hPa | 3.05 mm | - | 0 W/m² | - |
| 1778121982 | 8.33° C | 99% | 1003.4 hPa | 1.27 mm | - | 0 W/m² | - |
| 1778121679 | 8.33° C | 99% | 1003.3 hPa | 0 mm | - | 0 W/m² | - |
| 1778121374 | 8.33° C | 99% | 1003.1 hPa | 0 mm | - | 0 W/m² | - |
| 1778121072 | 8.33° C | 99% | 1003.4 hPa | 0 mm | - | 0 W/m² | - |
| 1778120769 | 8.89° C | 99% | 1003.3 hPa | 1.78 mm | - | 0 W/m² | - |
| 1778120459 | 8.89° C | 99% | 1003.2 hPa | 1.78 mm | - | 0 W/m² | - |
| 1778120156 | 8.89° C | 99% | 1003.3 hPa | 0 mm | - | 0 W/m² | - |
| 1778119852 | 9.44° C | 99% | 1003.1 hPa | 0 mm | - | 0 W/m² | - |
| 1778119550 | 9.44° C | 99% | 1003.3 hPa | 0 mm | - | 0 W/m² | - |
| 1778119245 | 9.44° C | 99% | 1003.3 hPa | 0 mm | - | 0 W/m² | - |
| 1778118944 | 9.44° C | 99% | 1003.2 hPa | 0 mm | - | 0 W/m² | - |
| 1778118642 | 10° C | 99% | 1003.3 hPa | 1.27 mm | - | 0 W/m² | - |
| 1778118337 | 9.44° C | 99% | 1003.4 hPa | 4.32 mm | - | 0 W/m² | - |
| 1778118033 | 9.44° C | 99% | 1003.5 hPa | 7.87 mm | - | 0 W/m² | - |
* Rain latest hour (hover to see other rain measurements)
** Current wind speed in m/s (hover to see current wind gust speed)